User: anonymous   Login
Location: Unspecified
(0.0000°N, 0.0000°E)
Time: 17:37:52
(UTC+00:00)
Language:

Nimbus 4 - Orbit

View from above orbital plane
View from above orbital plane
View from above satellite
View from above satellite

Ground track
Ground track

The orbit data is extracted from the following two-line orbital elements,

1 04362U 70025A   21293.80049718 -.00000028  00000-0  28170-4 0  9996
2 04362  99.9528 206.5833 0007398 176.5989 252.0205 13.44623250528313
Epoch (UTC): 20 October 2021 19:12:42
Eccentricity: 0.0007398
inclination: 99.9528°
perigee height: 1086 km
apogee height: 1097 km
right ascension of ascending node: 206.5833°
argument of perigee: 176.5989°
revolutions per day: 13.44623250
mean anomaly at epoch: 252.0205°
orbit number at epoch: 52831

The dashed part of the orbit path shows where the satellite is in the earth's shadow,  

DLR